Weather reports worldwide

Advertisment
Jamestown, nd, United States of America (2074583): temperature & dewpoint: 07.12.2018 03:00:00 - 13.12.2018 03:00:00 (CST)Jamestown, nd, United States of America (2074583): wind speed: 07.12.2018 03:00:00 - 13.12.2018 03:00:00 (CST)Jamestown, nd, United States of America (2074583): wind direction: 07.12.2018 03:00:00 - 13.12.2018 03:00:00 (CST)Jamestown, nd, United States of America (2074583): reduced air pressure: 07.12.2018 03:00:00 - 13.12.2018 03:00:00 (CST)Jamestown, nd, United States of America (2074583): visibility: 07.12.2018 03:00:00 - 13.12.2018 03:00:00 (CST)Jamestown, nd, United States of America (2074583): precipitation: 07.12.2018 03:00:00 - 13.12.2018 03:00:00 (CST)
Date & Time tt [°C] td [°C] ff [km/h] ff [kn] dd ppp [hPa] vv [km] rr [mm]
13.12.2018 03:00:00 0,6 0,0 29 16 NW 1010,8 6 0,0
13.12.2018 02:00:00 1,1 0,0 28 15 WNW 1009,4 16 -
13.12.2018 01:00:00 2,2 0,6 21 11 WNW 1008,1 16 -
13.12.2018 00:00:00 1,1 0,6 11 6 WSW 1007,5 16 0,0
12.12.2018 23:00:00 0,6 0,0 8 4 SSW 1007,1 13 0,0
12.12.2018 22:00:00 0,0 0,0 15 8 S 1006,6 6 0,0
12.12.2018 21:00:00 0,0 -0,6 15 8 S 1006,5 6 0,0
12.12.2018 20:00:00 -0,6 -1,1 21 11 S 1006,3 16 0,0
12.12.2018 19:00:00 0,0 -1,1 21 11 S 1006,1 16 0,0
12.12.2018 18:00:00 0,0 -1,1 16 9 S 1005,7 16 -
12.12.2018 17:00:00 0,6 -1,1 21 11 S 1004,5 16 -
12.12.2018 16:00:00 1,1 -1,1 22 12 SSE 1003,7 16 -
12.12.2018 15:00:00 1,1 -0,6 21 11 S 1003,7 16 -
12.12.2018 14:00:00 1,1 -1,1 21 11 S 1003,7 16 -
12.12.2018 13:00:00 1,1 -0,6 15 8 S 1003,9 16 -
12.12.2018 12:00:00 0,6 -0,6 21 11 S 1004,0 16 -
12.12.2018 11:00:00 -1,1 -1,1 22 12 S 1005,0 15 -
12.12.2018 10:00:00 -2,8 -4,4 13 7 S 1005,3 15 -
12.12.2018 09:00:00 -6,1 -7,8 11 6 SSE 1005,8 13 -
12.12.2018 08:00:00 -7,8 -10,6 8 4 S 1006,2 11 -
12.12.2018 07:00:00 -8,9 -11,1 9 5 SSE 1006,1 10 -
12.12.2018 06:00:00 -8,9 -10,6 9 5 S 1006,6 8 -
12.12.2018 05:00:00 -10,0 -11,1 5 3 SE 1007,0 15 -
12.12.2018 04:00:00 -7,8 -8,3 5 3 SSE 1007,3 8 -
12.12.2018 03:00:00 -9,4 -9,4 0 0 N 1008,2 1,6 -
12.12.2018 02:00:00 -7,2 -7,8 0 0 N 1008,4 13 -
12.12.2018 01:00:00 -6,1 -6,7 8 4 WNW 1008,5 16 -
12.12.2018 00:00:00 -5,6 -6,1 11 6 WNW 1008,8 16 -
11.12.2018 23:00:00 -4,4 -6,1 9 5 NW 1008,8 16 -
11.12.2018 22:00:00 -3,9 -5,6 15 8 WNW 1009,9 16 -
11.12.2018 21:00:00 -3,3 -5,0 15 8 WNW 1010,6 16 -
11.12.2018 20:00:00 -2,2 -3,3 11 6 WNW 1011,0 16 -
11.12.2018 19:00:00 -1,1 -2,8 11 6 W 1011,6 16 -
11.12.2018 18:00:00 -0,6 -0,6 5 3 SW 1011,9 16 -
11.12.2018 17:00:00 0,0 -1,1 8 4 SSW 1011,6 16 -
11.12.2018 16:00:00 1,1 -0,6 5 3 SSW 1011,6 16 0,0
11.12.2018 15:00:00 1,1 -0,6 8 4 SW 1011,6 16 0,0
11.12.2018 14:00:00 1,1 -2,2 11 6 W 1012,4 15 0,0
11.12.2018 13:00:00 0,6 -2,8 9 5 WSW 1012,9 16 -
11.12.2018 12:00:00 -0,6 -3,9 8 4 SW 1013,5 16 -
11.12.2018 11:00:00 -1,7 -4,4 11 6 SSW 1014,5 16 -
11.12.2018 10:00:00 -3,9 -6,1 8 4 S 1014,5 16 -
11.12.2018 09:00:00 -5,0 -6,7 5 3 SW 1014,3 16 -
11.12.2018 08:00:00 -5,6 -7,8 5 3 S 1014,7 16 -
11.12.2018 07:00:00 -7,2 -8,3 9 5 S 1015,3 16 -
11.12.2018 06:00:00 -8,3 -8,9 0 0 N 1015,5 16 -
11.12.2018 05:00:00 -8,3 -8,9 5 3 S 1015,5 16 -
11.12.2018 04:00:00 -8,9 -9,4 5 3 SSW 1015,8 15 -
11.12.2018 03:00:00 -8,9 -9,4 8 4 S 1016,0 16 -
11.12.2018 02:00:00 -8,9 -9,4 5 3 SSW 1016,2 16 -
11.12.2018 01:00:00 -7,2 -8,3 5 3 ESE 1016,4 16 -
11.12.2018 00:00:00 -6,7 -7,8 0 0 N 1017,1 16 -
10.12.2018 23:00:00 -6,7 -7,8 0 0 N 1016,7 16 -
10.12.2018 22:00:00 -6,7 -8,9 0 0 N 1016,8 16 -
10.12.2018 21:00:00 -8,9 -11,7 0 0 N 1017,3 16 -
10.12.2018 20:00:00 -8,3 -9,4 0 0 N 1017,5 16 -
10.12.2018 19:00:00 -7,2 -8,3 0 0 N 1017,6 16 -
10.12.2018 18:00:00 -7,2 -8,3 0 0 N 1017,2 16 -
10.12.2018 17:00:00 -3,9 -7,2 0 0 N 1016,9 16 -
10.12.2018 16:00:00 0,0 -5,0 5 3 N 1016,5 16 -
10.12.2018 15:00:00 1,1 -5,6 11 6 NW 1016,3 16 -
10.12.2018 14:00:00 0,6 -5,6 13 7 WNW 1016,5 16 -
10.12.2018 13:00:00 0,0 -6,1 15 8 NW 1017,1 16 -
10.12.2018 12:00:00 -1,1 -6,7 15 8 WNW 1017,6 16 -
10.12.2018 11:00:00 -2,2 -7,2 16 9 WNW 1018,0 16 -
10.12.2018 10:00:00 -4,4 -7,8 11 6 WNW 1018,4 16 -
10.12.2018 09:00:00 -5,6 -8,9 16 9 W 1018,2 16 -
10.12.2018 08:00:00 -6,7 -9,4 16 9 W 1018,5 16 -
10.12.2018 07:00:00 -5,6 -8,3 15 8 WSW 1018,2 16 -
10.12.2018 06:00:00 -5,6 -8,3 9 5 WSW 1018,5 16 -
10.12.2018 05:00:00 -4,4 -7,8 16 9 SW 1018,8 16 -
10.12.2018 04:00:00 -5,6 -8,3 9 5 W 1020,0 16 -
10.12.2018 03:00:00 -6,1 -8,9 11 6 WSW 1020,6 16 -
10.12.2018 02:00:00 -7,2 -10,0 0 0 N 1021,4 16 -
10.12.2018 01:00:00 -7,8 -10,0 11 6 SW 1022,2 16 -
10.12.2018 00:00:00 -7,2 -9,4 13 7 SW 1023,4 16 -
09.12.2018 23:00:00 -7,2 -9,4 13 7 WSW 1024,1 16 -
09.12.2018 22:00:00 -7,2 -9,4 15 8 W 1024,8 16 -
09.12.2018 21:00:00 -7,8 -11,1 9 5 WSW 1025,3 16 -
09.12.2018 20:00:00 -5,6 -8,3 13 7 W 1025,9 16 -
09.12.2018 19:00:00 -5,6 -8,3 8 4 W 1026,0 16 -
09.12.2018 18:00:00 -5,6 -8,3 11 6 W 1026,5 16 -
09.12.2018 17:00:00 -4,4 -7,8 11 6 WSW 1026,8 16 -
09.12.2018 16:00:00 -1,7 -6,7 16 9 W 1027,0 16 -
09.12.2018 15:00:00 -0,6 -7,2 15 8 WNW 1026,8 16 -
09.12.2018 14:00:00 -1,7 -7,8 13 7 WNW 1027,1 16 -
09.12.2018 13:00:00 -3,9 -9,4 16 9 W 1027,5 16 -
09.12.2018 12:00:00 -6,1 -10,0 15 8 WNW 1028,0 16 -
09.12.2018 11:00:00 -8,3 -11,7 15 8 WNW 1028,6 16 -
09.12.2018 10:00:00 -11,1 -13,9 16 9 WNW 1028,6 16 -
09.12.2018 09:00:00 -13,3 -15,0 13 7 WNW 1028,0 16 -
09.12.2018 08:00:00 -13,9 -15,6 13 7 WNW 1028,1 16 -
09.12.2018 07:00:00 -13,3 -15,6 11 6 WNW 1027,7 16 -
09.12.2018 06:00:00 -13,9 -15,6 11 6 WNW 1027,1 16 -
09.12.2018 05:00:00 -13,9 -15,6 9 5 NW 1027,0 16 -
09.12.2018 04:00:00 -13,3 -14,4 5 3 WNW 1026,5 16 -
09.12.2018 03:00:00 -12,2 -13,9 11 6 NW 1026,2 16 -
09.12.2018 02:00:00 -11,1 -12,8 13 7 NNW 1025,8 16 -
09.12.2018 01:00:00 -11,7 -12,8 13 7 NW 1025,7 16 -
09.12.2018 00:00:00 -11,1 -12,2 15 8 NW 1025,6 16 -
08.12.2018 23:00:00 -13,3 -15,0 9 5 NW 1025,5 11 -
08.12.2018 22:00:00 -13,3 -14,4 8 4 - 1025,3 10 -
08.12.2018 21:00:00 -11,1 -13,3 5 3 SSE 1025,0 8 -
08.12.2018 20:00:00 -10,0 -11,1 0 0 N 1024,8 11 -
08.12.2018 19:00:00 -8,9 -10,0 5 3 SE 1024,5 16 -
08.12.2018 18:00:00 -5,6 -7,8 5 3 W 1024,5 16 -
08.12.2018 17:00:00 -4,4 -6,7 8 4 W 1024,0 16 -
08.12.2018 16:00:00 -3,3 -6,1 15 8 SSE 1023,0 16 -
08.12.2018 15:00:00 -2,8 -6,1 31 17 S 1023,2 16 -
08.12.2018 14:00:00 -3,3 -6,7 16 9 SSE 1023,9 16 -
08.12.2018 13:00:00 -5,6 -8,3 24 13 S 1025,0 16 -
08.12.2018 12:00:00 -6,1 -8,3 28 15 S 1025,7 16 -
08.12.2018 11:00:00 -7,2 -9,4 26 14 S 1026,4 16 -
08.12.2018 10:00:00 -8,9 -10,0 31 17 S 1026,2 16 -
08.12.2018 09:00:00 -11,1 -12,2 22 12 S 1027,1 16 -
08.12.2018 08:00:00 -11,7 -13,3 11 6 SSE 1027,5 16 -
08.12.2018 07:00:00 -11,7 -13,3 16 9 S 1028,3 16 -
08.12.2018 06:00:00 -12,2 -13,9 15 8 S 1028,4 16 -
08.12.2018 05:00:00 -12,2 -13,3 16 9 S 1028,7 16 -
08.12.2018 04:00:00 -12,2 -13,9 15 8 S 1029,2 16 -
08.12.2018 03:00:00 -13,9 -15,0 8 4 S 1030,1 16 -
08.12.2018 02:00:00 -13,9 -15,6 8 4 S 1029,9 16 -
08.12.2018 01:00:00 -13,9 -15,6 9 5 S 1030,4 16 -
08.12.2018 00:00:00 -13,9 -15,6 9 5 S 1030,5 16 -
07.12.2018 23:00:00 -13,9 -15,6 9 5 S 1030,7 16 -
07.12.2018 22:00:00 -11,7 -16,1 11 6 SSW 1030,8 16 -
07.12.2018 21:00:00 -13,3 -16,7 0 0 N 1031,2 16 -
07.12.2018 20:00:00 -12,2 -13,3 8 4 SSW 1031,2 16 -
07.12.2018 19:00:00 -11,7 -13,3 8 4 S 1031,0 16 -
07.12.2018 18:00:00 -9,4 -11,7 5 3 S 1030,9 16 -
07.12.2018 17:00:00 -7,2 -11,1 5 3 WSW 1030,5 16 -
07.12.2018 16:00:00 -5,6 -10,6 9 5 W 1030,0 16 -
07.12.2018 15:00:00 -5,0 -10,6 13 7 W 1029,5 16 -
07.12.2018 14:00:00 -5,0 -10,6 13 7 W 1029,6 16 -
07.12.2018 13:00:00 -6,1 -10,6 9 5 WNW 1030,1 16 -
07.12.2018 12:00:00 -6,7 -10,0 11 6 NW 1030,1 16 -
07.12.2018 11:00:00 -8,9 -13,9 13 7 NW 1030,3 16 -
07.12.2018 10:00:00 -10,0 -12,2 15 8 NW 1029,7 16 -
07.12.2018 09:00:00 -11,7 -13,3 13 7 NW 1028,9 16 -
07.12.2018 08:00:00 -11,7 -13,3 11 6 WNW 1028,3 16 -
07.12.2018 07:00:00 -10,6 -12,8 8 4 W 1028,0 16 -
07.12.2018 06:00:00 -9,4 -12,2 15 8 W 1027,3 16 -
07.12.2018 05:00:00 -8,9 -11,7 16 9 WSW 1027,2 16 -
07.12.2018 04:00:00 -7,2 -11,1 18 10 SW 1026,7 16 -
07.12.2018 03:00:00 -6,7 -11,1 18 10 SW 1026,6 16 -

tt = temperature
td = dewpoint
ff = wind speed
dd = wind direction
ppp = reduced air pressure
vv = visibility
rr = precipitation

Next stations